CCM90BI LFKJ-LFMN

Flight info

Callsign CCM90BI
Flight time 0h 36m
Altitude 16000
Route LONSU
Aircraft AT76/M-SDFGIRY/S

Departure

Time 2026-04-25 08:55
Airport Ajaccio Napoléon Bonaparte airport (LFKJ)

Arrival

Time 2026-04-25 09:32
Airport Nice-Côte d'Azur Airport (LFMN)
Time Latitude Longitude Altitude Speed Heading
2026-04-25 08:39 41.92025 8.79600 21 ft 0 kts 314°
2026-04-25 08:47 41.92013 8.79616 25 ft 3 kts 320°
2026-04-25 08:47 41.91998 8.79632 24 ft 3 kts 320°
2026-04-25 08:47 41.91983 8.79647 24 ft 3 kts 347°
2026-04-25 08:47 41.91971 8.79648 23 ft 0 kts 19°
2026-04-25 08:48 41.91974 8.79650 23 ft 0 kts 19°
2026-04-25 08:50 41.91981 8.79653 23 ft 4 kts 22°
2026-04-25 08:50 41.92022 8.79678 22 ft 9 kts 26°
2026-04-25 08:50 41.92085 8.79721 23 ft 11 kts 26°
2026-04-25 08:51 41.92162 8.79771 25 ft 13 kts 25°
2026-04-25 08:51 41.92248 8.79821 23 ft 14 kts 23°
2026-04-25 08:51 41.92338 8.79878 24 ft 15 kts 25°
2026-04-25 08:51 41.92432 8.79938 22 ft 15 kts 25°
2026-04-25 08:52 41.92528 8.79998 24 ft 15 kts 25°
2026-04-25 08:52 41.92624 8.80057 23 ft 16 kts 25°
2026-04-25 08:52 41.92722 8.80118 24 ft 15 kts 27°
2026-04-25 08:52 41.92812 8.80200 23 ft 14 kts 44°
2026-04-25 08:53 41.92815 8.80303 22 ft 13 kts 115°
2026-04-25 08:53 41.92801 8.80342 23 ft 0 kts 116°
2026-04-25 08:54 41.92782 8.80396 26 ft 16 kts 115°
2026-04-25 08:54 41.92721 8.80446 23 ft 11 kts 197°
2026-04-25 08:54 41.92607 8.80377 22 ft 44 kts 205°
2026-04-25 08:55 41.92121 8.80075 22 ft 108 kts 205°
2026-04-25 08:55 41.91308 8.79570 203 ft 142 kts 205°
2026-04-25 08:55 41.90378 8.78924 509 ft 156 kts 214°
2026-04-25 08:55 41.89377 8.78088 682 ft 188 kts 212°
2026-04-25 08:56 41.88170 8.77120 894 ft 212 kts 212°
2026-04-25 08:56 41.86865 8.76034 1173 ft 227 kts 212°
2026-04-25 08:56 41.85497 8.74873 1490 ft 236 kts 213°
2026-04-25 08:56 41.84086 8.73673 1809 ft 243 kts 213°
2026-04-25 08:57 41.82664 8.72464 2112 ft 247 kts 213°
2026-04-25 08:57 41.81196 8.71221 2425 ft 250 kts 213°
2026-04-25 08:57 41.79706 8.69961 2817 ft 251 kts 213°
2026-04-25 08:57 41.78245 8.68727 3199 ft 252 kts 213°
2026-04-25 08:58 41.76773 8.67442 3575 ft 252 kts 215°
2026-04-25 08:58 41.75325 8.66096 3947 ft 253 kts 216°
2026-04-25 08:58 41.73899 8.64704 4328 ft 253 kts 218°
2026-04-25 08:58 41.72779 8.62960 4704 ft 247 kts 243°
2026-04-25 08:59 41.72127 8.60828 5080 ft 248 kts 252°
2026-04-25 08:59 41.71827 8.58569 5461 ft 247 kts 268°
2026-04-25 08:59 41.72171 8.56378 5837 ft 245 kts 294°
2026-04-25 08:59 41.72901 8.54293 6217 ft 249 kts 296°
2026-04-25 09:00 41.73685 8.52203 6601 ft 252 kts 297°
2026-04-25 09:00 41.74526 8.50119 6960 ft 255 kts 299°
2026-04-25 09:00 41.75401 8.48037 7322 ft 258 kts 300°
2026-04-25 09:00 41.76297 8.45939 7690 ft 260 kts 300°
2026-04-25 09:01 41.77205 8.43830 8060 ft 262 kts 300°
2026-04-25 09:01 41.78120 8.41708 8440 ft 264 kts 300°
2026-04-25 09:01 41.79045 8.39586 8821 ft 265 kts 301°
2026-04-25 09:01 41.79994 8.37461 9203 ft 266 kts 301°
2026-04-25 09:02 41.80964 8.35342 9597 ft 267 kts 302°
2026-04-25 09:02 41.81965 8.33240 9989 ft 265 kts 307°
2026-04-25 09:02 41.83283 8.31594 10336 ft 261 kts 323°
2026-04-25 09:02 41.84924 8.30604 10683 ft 259 kts 343°
2026-04-25 09:03 41.86678 8.29956 11064 ft 263 kts 346°
2026-04-25 09:03 41.88464 8.29357 11429 ft 265 kts 346°
2026-04-25 09:03 41.90269 8.28781 11796 ft 267 kts 347°
2026-04-25 09:03 41.92092 8.28213 12181 ft 269 kts 347°
2026-04-25 09:04 41.93923 8.27650 12561 ft 271 kts 347°
2026-04-25 09:04 41.95767 8.27086 12949 ft 272 kts 347°
2026-04-25 09:04 41.97596 8.26527 13330 ft 273 kts 347°
2026-04-25 09:04 41.99453 8.25960 13717 ft 274 kts 347°
2026-04-25 09:05 42.01327 8.25386 14097 ft 275 kts 347°
2026-04-25 09:05 42.03194 8.24813 14448 ft 275 kts 347°
2026-04-25 09:05 42.05062 8.24234 14803 ft 275 kts 347°
2026-04-25 09:05 42.06926 8.23652 15167 ft 275 kts 347°
2026-04-25 09:06 42.08792 8.23067 15531 ft 275 kts 347°
2026-04-25 09:06 42.10664 8.22475 15826 ft 278 kts 347°
2026-04-25 09:06 42.12585 8.21868 15906 ft 288 kts 347°
2026-04-25 09:06 42.14562 8.21242 15942 ft 297 kts 347°
2026-04-25 09:07 42.16598 8.20598 15959 ft 303 kts 347°
2026-04-25 09:07 42.18672 8.19943 15966 ft 309 kts 347°
2026-04-25 09:07 42.20778 8.19279 15970 ft 313 kts 347°
2026-04-25 09:07 42.22915 8.18608 15970 ft 316 kts 347°
2026-04-25 09:08 42.25029 8.17945 15969 ft 318 kts 347°
2026-04-25 09:08 42.27192 8.17268 15972 ft 319 kts 347°
2026-04-25 09:08 42.29355 8.16590 15971 ft 320 kts 347°
2026-04-25 09:08 42.31527 8.15912 15971 ft 318 kts 347°
2026-04-25 09:09 42.33659 8.15245 15968 ft 312 kts 347°
2026-04-25 09:09 42.35770 8.14586 15966 ft 308 kts 347°
2026-04-25 09:09 42.37847 8.13939 15967 ft 305 kts 347°
2026-04-25 09:09 42.39914 8.13296 15966 ft 303 kts 347°
2026-04-25 09:10 42.41962 8.12658 15968 ft 301 kts 347°
2026-04-25 09:10 42.44002 8.12024 15967 ft 300 kts 347°
2026-04-25 09:10 42.46035 8.11394 15967 ft 299 kts 347°
2026-04-25 09:10 42.48037 8.10774 15968 ft 299 kts 347°
2026-04-25 09:11 42.52115 8.09514 15970 ft 298 kts 347°
2026-04-25 09:11 42.54114 8.08898 15968 ft 298 kts 347°
2026-04-25 09:11 42.56128 8.08277 15964 ft 297 kts 347°
2026-04-25 09:12 42.58146 8.07656 15965 ft 297 kts 347°
2026-04-25 09:12 42.60166 8.07036 15964 ft 297 kts 347°
2026-04-25 09:12 42.62191 8.06415 15963 ft 297 kts 347°
2026-04-25 09:12 42.64208 8.05799 15964 ft 297 kts 347°
2026-04-25 09:13 42.66228 8.05184 15963 ft 297 kts 347°
2026-04-25 09:13 42.68268 8.04564 15710 ft 305 kts 347°
2026-04-25 09:13 42.70339 8.03938 15415 ft 312 kts 347°
2026-04-25 09:13 42.72517 8.03523 15122 ft 314 kts 356°
2026-04-25 09:14 42.74713 8.03420 14848 ft 318 kts 360°
2026-04-25 09:14 42.76906 8.03470 14578 ft 318 kts
2026-04-25 09:14 42.79122 8.03569 14318 ft 318 kts
2026-04-25 09:14 42.81266 8.03212 14023 ft 310 kts 339°
2026-04-25 09:15 42.83066 8.01677 13711 ft 301 kts 320°
2026-04-25 09:15 42.84648 7.99818 13388 ft 299 kts 317°
2026-04-25 09:15 42.86174 7.97900 13071 ft 297 kts 316°
2026-04-25 09:15 42.87667 7.95967 12768 ft 295 kts 315°
2026-04-25 09:16 42.89147 7.94024 12462 ft 294 kts 315°
2026-04-25 09:16 42.90596 7.92107 12159 ft 293 kts 315°
2026-04-25 09:16 42.92053 7.90171 11858 ft 291 kts 315°
2026-04-25 09:16 42.93500 7.88245 11560 ft 290 kts 315°
2026-04-25 09:17 42.96380 7.84395 10981 ft 288 kts 315°
2026-04-25 09:17 42.97805 7.82482 10716 ft 286 kts 315°
2026-04-25 09:17 42.99183 7.80632 10539 ft 277 kts 315°
2026-04-25 09:18 43.00549 7.78796 10333 ft 272 kts 315°
2026-04-25 09:18 43.01894 7.76985 10047 ft 271 kts 315°
2026-04-25 09:18 43.03232 7.75174 9731 ft 270 kts 315°
2026-04-25 09:18 43.04563 7.73376 9422 ft 269 kts 315°
2026-04-25 09:19 43.05897 7.71580 9110 ft 268 kts 315°
2026-04-25 09:19 43.07226 7.69800 8802 ft 267 kts 315°
2026-04-25 09:19 43.08557 7.68020 8500 ft 267 kts 315°
2026-04-25 09:19 43.09889 7.66250 8192 ft 267 kts 315°
2026-04-25 09:20 43.11223 7.64489 7900 ft 266 kts 315°
2026-04-25 09:20 43.12540 7.62755 7609 ft 265 kts 315°
2026-04-25 09:20 43.13871 7.61009 7316 ft 265 kts 314°
2026-04-25 09:20 43.15192 7.59255 7026 ft 264 kts 314°
2026-04-25 09:21 43.16509 7.57493 6739 ft 264 kts 314°
2026-04-25 09:21 43.17819 7.55736 6450 ft 263 kts 314°
2026-04-25 09:21 43.19130 7.53975 6133 ft 263 kts 314°
2026-04-25 09:21 43.20437 7.52223 5847 ft 263 kts 314°
2026-04-25 09:22 43.21741 7.50475 5546 ft 263 kts 314°
2026-04-25 09:22 43.23050 7.48727 5248 ft 262 kts 314°
2026-04-25 09:22 43.24358 7.46989 4982 ft 260 kts 314°
2026-04-25 09:22 43.25635 7.45298 4812 ft 256 kts 314°
2026-04-25 09:23 43.26910 7.43614 4632 ft 253 kts 314°
2026-04-25 09:23 43.28174 7.41949 4453 ft 251 kts 314°
2026-04-25 09:23 43.29432 7.40295 4274 ft 249 kts 314°
2026-04-25 09:23 43.30676 7.38658 4094 ft 248 kts 314°
2026-04-25 09:24 43.31918 7.37024 3921 ft 247 kts 314°
2026-04-25 09:24 43.33156 7.35393 3751 ft 246 kts 314°
2026-04-25 09:24 43.34390 7.33765 3577 ft 246 kts 314°
2026-04-25 09:24 43.35618 7.32139 3407 ft 246 kts 314°
2026-04-25 09:25 43.36847 7.30504 3227 ft 245 kts 314°
2026-04-25 09:25 43.38068 7.28872 3096 ft 243 kts 314°
2026-04-25 09:25 43.39268 7.27256 3046 ft 239 kts 314°
2026-04-25 09:25 43.40441 7.25664 3021 ft 235 kts 314°
2026-04-25 09:26 43.41600 7.24089 3005 ft 232 kts 314°
2026-04-25 09:26 43.42741 7.22526 3002 ft 230 kts 314°
2026-04-25 09:26 43.43867 7.20979 2994 ft 228 kts 314°
2026-04-25 09:26 43.44980 7.19446 2987 ft 226 kts 314°
2026-04-25 09:27 43.46078 7.17931 2986 ft 224 kts 314°
2026-04-25 09:27 43.47396 7.16892 2983 ft 221 kts 348°
2026-04-25 09:27 43.48918 7.16700 2993 ft 221 kts 355°
2026-04-25 09:27 43.50480 7.16592 2839 ft 229 kts 356°
2026-04-25 09:28 43.52052 7.16512 2588 ft 222 kts 357°
2026-04-25 09:28 43.53575 7.16289 2325 ft 217 kts 351°
2026-04-25 09:28 43.54553 7.16072 2183 ft 214 kts 350°
2026-04-25 09:28 43.55979 7.15723 2092 ft 195 kts 349°
2026-04-25 09:29 43.57222 7.15395 1807 ft 178 kts 349°
2026-04-25 09:29 43.58405 7.15079 1572 ft 164 kts 349°
2026-04-25 09:29 43.59399 7.14831 1571 ft 129 kts 353°
2026-04-25 09:29 43.60246 7.14807 1412 ft 120 kts
2026-04-25 09:30 43.61072 7.15057 1314 ft 122 kts 23°
2026-04-25 09:30 43.61788 7.15684 1177 ft 125 kts 42°
2026-04-25 09:30 43.62436 7.16561 922 ft 133 kts 46°
2026-04-25 09:30 43.63096 7.17497 626 ft 138 kts 46°
2026-04-25 09:31 43.63769 7.18415 391 ft 137 kts 47°
2026-04-25 09:31 43.64422 7.19324 259 ft 129 kts 47°
2026-04-25 09:31 43.65040 7.20197 133 ft 127 kts 47°
2026-04-25 09:31 43.65653 7.21052 19 ft 119 kts 45°
2026-04-25 09:32 43.66132 7.21711 16 ft 76 kts 45°
2026-04-25 09:32 43.66463 7.22165 18 ft 58 kts 44°
2026-04-25 09:32 43.66667 7.22446 14 ft 26 kts 44°
2026-04-25 09:32 43.66789 7.22434 11 ft 18 kts 315°
2026-04-25 09:33 43.66804 7.22320 12 ft 10 kts 233°
2026-04-25 09:33 43.66772 7.22272 12 ft 5 kts 225°
2026-04-25 09:33 43.66751 7.22243 11 ft 5 kts 225°
2026-04-25 09:33 43.66716 7.22195 11 ft 8 kts 225°
2026-04-25 09:34 43.66673 7.22135 13 ft 9 kts 225°
2026-04-25 09:34 43.66628 7.22073 14 ft 9 kts 224°
2026-04-25 09:34 43.66580 7.22008 15 ft 10 kts 225°
2026-04-25 09:34 43.66525 7.21932 15 ft 12 kts 225°
2026-04-25 09:35 43.66471 7.21856 16 ft 11 kts 225°
2026-04-25 09:35 43.66414 7.21777 16 ft 12 kts 225°
2026-04-25 09:35 43.66347 7.21688 14 ft 14 kts 223°
2026-04-25 09:35 43.66342 7.21578 15 ft 14 kts 313°
2026-04-25 09:36 43.66364 7.21459 15 ft 14 kts 244°
2026-04-25 09:36 43.66296 7.21360 13 ft 14 kts 224°
2026-04-25 09:36 43.66227 7.21267 13 ft 14 kts 226°
2026-04-25 09:36 43.66179 7.21205 14 ft 5 kts 203°
2026-04-25 09:37 43.66154 7.21222 16 ft 5 kts 136°
2026-04-25 09:37 43.66131 7.21255 14 ft 0 kts 135°